TimeMST,TemperatureF,Dew PointF,Humidity,Sea Level PressureIn,VisibilityMPH,Wind Direction,Wind SpeedMPH,Gust SpeedMPH,PrecipitationIn,Events,Conditions,WindDirDegrees,DateUTC
12:15 AM,26.2,19.2,75,30.15,10.0,NE,9.2,-,N/A,,Clear,40,2013-01-24 07:15:00
12:35 AM,26.6,19.4,74,30.14,10.0,NE,11.5,-,N/A,,Clear,50,2013-01-24 07:35:00
12:55 AM,25.9,19.0,75,30.13,10.0,NE,10.4,-,N/A,,Clear,50,2013-01-24 07:55:00
1:15 AM,25.7,19.0,76,30.12,10.0,ENE,10.4,-,N/A,,Clear,60,2013-01-24 08:15:00
1:35 AM,25.7,19.4,77,30.11,10.0,ENE,10.4,-,N/A,,Clear,60,2013-01-24 08:35:00
1:55 AM,25.5,19.4,78,30.10,10.0,ENE,9.2,-,N/A,,Clear,60,2013-01-24 08:55:00
2:15 AM,25.0,19.2,79,30.09,10.0,ENE,9.2,-,N/A,,Clear,60,2013-01-24 09:15:00
2:35 AM,24.8,19.2,79,30.10,10.0,NNE,9.2,-,N/A,,Clear,20,2013-01-24 09:35:00
2:55 AM,25.7,19.4,77,30.09,10.0,North,9.2,-,N/A,,Clear,10,2013-01-24 09:55:00
3:15 AM,26.1,19.2,75,30.07,10.0,North,8.1,-,N/A,,Clear,10,2013-01-24 10:15:00
3:35 AM,25.5,19.2,77,30.09,10.0,NNW,8.1,-,N/A,,Clear,340,2013-01-24 10:35:00
3:55 AM,25.5,19.2,77,30.07,10.0,NNW,10.4,-,N/A,,Clear,340,2013-01-24 10:55:00
4:15 AM,25.3,19.2,78,30.07,10.0,North,9.2,-,N/A,,Clear,350,2013-01-24 11:15:00
4:35 AM,24.6,19.0,79,30.07,10.0,North,10.4,-,N/A,,Clear,350,2013-01-24 11:35:00
4:55 AM,24.1,19.0,81,30.06,10.0,North,9.2,-,N/A,,Clear,360,2013-01-24 11:55:00
5:15 AM,22.3,18.1,84,30.07,10.0,NNW,9.2,-,N/A,,Clear,340,2013-01-24 12:15:00
5:35 AM,21.7,17.8,85,30.07,10.0,North,8.1,-,N/A,,Clear,360,2013-01-24 12:35:00
5:55 AM,20.8,18.0,89,30.06,10.0,North,11.5,-,N/A,,Clear,360,2013-01-24 12:55:00
6:15 AM,20.1,17.1,88,30.08,10.0,NNW,8.1,-,N/A,,Clear,330,2013-01-24 13:15:00
6:35 AM,20.3,17.2,88,30.07,10.0,North,6.9,-,N/A,,Clear,350,2013-01-24 13:35:00
6:55 AM,20.3,17.4,89,30.07,10.0,NNW,5.8,-,N/A,,Clear,330,2013-01-24 13:55:00
7:15 AM,19.4,16.2,87,30.07,10.0,SW,3.5,-,N/A,,Clear,230,2013-01-24 14:15:00
7:35 AM,20.3,17.4,89,30.06,10.0,Calm,Calm,-,N/A,,Clear,0,2013-01-24 14:35:00
7:55 AM,20.3,16.7,86,30.06,10.0,SSW,4.6,-,N/A,,Clear,210,2013-01-24 14:55:00
8:15 AM,20.1,16.7,87,30.06,10.0,SW,5.8,-,N/A,,Clear,230,2013-01-24 15:15:00
8:35 AM,20.3,17.6,89,30.06,10.0,WSW,3.5,-,N/A,,Clear,240,2013-01-24 15:35:00
8:55 AM,24.6,20.1,83,30.06,10.0,WSW,8.1,-,N/A,,Clear,250,2013-01-24 15:55:00
9:15 AM,26.1,19.8,77,30.06,10.0,WSW,10.4,-,N/A,,Clear,240,2013-01-24 16:15:00
9:35 AM,27.1,19.4,73,30.05,10.0,WSW,8.1,-,N/A,,Clear,250,2013-01-24 16:35:00
9:55 AM,27.9,19.4,71,30.05,10.0,SSW,6.9,-,N/A,,Clear,210,2013-01-24 16:55:00
10:15 AM,30.0,20.7,68,30.05,10.0,WSW,9.2,-,N/A,,Clear,240,2013-01-24 17:15:00
10:35 AM,31.3,21.0,66,30.03,10.0,West,8.1,-,N/A,,Clear,270,2013-01-24 17:35:00
10:55 AM,32.7,20.5,61,30.04,10.0,SW,5.8,-,N/A,,Clear,230,2013-01-24 17:55:00
11:15 AM,33.8,20.3,58,30.02,10.0,WSW,6.9,-,N/A,,Clear,240,2013-01-24 18:15:00
11:35 AM,36.5,20.7,53,30.00,10.0,Calm,Calm,-,N/A,,Clear,0,2013-01-24 18:35:00
11:55 AM,39.0,21.0,49,30.00,10.0,SW,8.1,-,N/A,,Clear,230,2013-01-24 18:55:00
12:15 PM,44.1,21.2,40,30.00,10.0,WSW,6.9,-,N/A,,Clear,240,2013-01-24 19:15:00
12:35 PM,46.9,19.2,33,29.98,10.0,SW,4.6,-,N/A,,Clear,220,2013-01-24 19:35:00
12:55 PM,48.0,18.3,31,29.97,10.0,West,6.9,-,N/A,,Clear,270,2013-01-24 19:55:00
1:15 PM,49.6,17.6,28,29.96,10.0,SW,6.9,-,N/A,,Clear,230,2013-01-24 20:15:00
1:35 PM,49.5,18.0,29,29.96,10.0,WSW,9.2,-,N/A,,Clear,250,2013-01-24 20:35:00
1:55 PM,51.4,18.9,28,29.96,10.0,WSW,9.2,-,N/A,,Clear,250,2013-01-24 20:55:00
2:15 PM,53.8,19.2,26,29.95,10.0,West,8.1,-,N/A,,Clear,260,2013-01-24 21:15:00
2:35 PM,56.1,18.3,23,29.95,10.0,SW,5.8,-,N/A,,Clear,230,2013-01-24 21:35:00
2:55 PM,58.8,18.0,20,29.95,10.0,West,6.9,-,N/A,,Clear,260,2013-01-24 21:55:00
3:15 PM,60.3,17.1,19,29.96,10.0,WSW,6.9,-,N/A,,Clear,240,2013-01-24 22:15:00
3:35 PM,58.6,13.8,17,29.95,10.0,SW,6.9,-,N/A,,Clear,230,2013-01-24 22:35:00
3:55 PM,55.6,13.5,19,29.95,10.0,SW,4.6,-,N/A,,Clear,230,2013-01-24 22:55:00
4:15 PM,53.1,13.6,21,29.96,10.0,West,3.5,-,N/A,,Clear,260,2013-01-24 23:15:00
4:35 PM,51.6,13.1,22,29.96,10.0,West,4.6,-,N/A,,Clear,270,2013-01-24 23:35:00
4:55 PM,50.2,13.5,23,29.97,10.0,WNW,5.8,-,N/A,,Clear,290,2013-01-24 23:55:00
5:15 PM,48.6,12.6,24,30.00,10.0,WNW,8.1,-,N/A,,Clear,300,2013-01-25 00:15:00
5:35 PM,48.7,11.1,22,30.00,10.0,NW,10.4,-,N/A,,Clear,320,2013-01-25 00:35:00
5:55 PM,50.9,14.2,23,30.01,10.0,North,15.0,-,N/A,,Clear,350,2013-01-25 00:55:00
6:15 PM,52.2,20.7,29,30.03,10.0,NW,19.6,24.2,N/A,,Clear,320,2013-01-25 01:15:00
6:35 PM,53.6,22.5,30,30.04,10.0,WNW,19.6,25.3,N/A,,Clear,300,2013-01-25 01:35:00
6:55 PM,53.6,24.1,32,30.04,10.0,WNW,16.1,23.0,N/A,,Clear,300,2013-01-25 01:55:00
7:15 PM,54.1,24.1,31,30.05,10.0,WNW,17.3,-,N/A,,Clear,300,2013-01-25 02:15:00
7:35 PM,52.3,24.3,34,30.04,10.0,WNW,10.4,-,N/A,,Scattered Clouds,300,2013-01-25 02:35:00
7:55 PM,52.0,24.6,35,30.05,10.0,NNW,15.0,-,N/A,,Scattered Clouds,330,2013-01-25 02:55:00
8:15 PM,51.6,25.3,36,30.04,10.0,NNW,17.3,-,N/A,,Scattered Clouds,330,2013-01-25 03:15:00
8:35 PM,51.1,26.1,38,30.05,10.0,NNW,17.3,24.2,N/A,,Mostly Cloudy,330,2013-01-25 03:35:00
8:55 PM,50.9,26.2,38,30.06,10.0,NNW,20.7,24.2,N/A,,Overcast,330,2013-01-25 03:55:00
9:15 PM,52.0,26.4,37,30.06,10.0,NW,20.7,28.8,N/A,,Overcast,310,2013-01-25 04:15:00
9:35 PM,51.3,26.4,38,30.06,10.0,WNW,16.1,24.2,N/A,,Mostly Cloudy,300,2013-01-25 04:35:00
9:55 PM,50.0,26.6,40,30.07,10.0,North,16.1,-,N/A,,Scattered Clouds,360,2013-01-25 04:55:00
10:15 PM,47.3,26.8,45,30.08,10.0,NNW,19.6,-,N/A,,Scattered Clouds,340,2013-01-25 05:15:00
10:35 PM,47.7,27.0,45,30.08,10.0,NNW,24.2,33.4,N/A,,Clear,330,2013-01-25 05:35:00
10:55 PM,47.5,27.0,45,30.09,10.0,NNW,20.7,-,N/A,,Clear,340,2013-01-25 05:55:00
11:15 PM,45.9,27.0,48,30.09,10.0,NNW,15.0,24.2,N/A,,Clear,340,2013-01-25 06:15:00
11:35 PM,45.5,26.6,48,30.09,10.0,North,18.4,-,N/A,,Clear,350,2013-01-25 06:35:00
11:55 PM,44.2,26.8,50,30.09,10.0,NNW,23.0,27.6,N/A,,Clear,340,2013-01-25 06:55:00